Member area
Imprimable
Maredsous, 19/12/2014, BEL - Maredsous Christmas Night Trail
List of reports > 30km - Result
Search: Page: [1]
114 Entries
 
Complains are not accepted anymore. Results are final.
Category
PosNrNameAgeNATTeamRealTimeTkmMoy.PlaceNamePtsCity
1.584MAGNEE Fabian41BELTEAM TRAIL SALO2:19:372:20:084:41 12.851homCHEVRON
2.594PASQUE Fabrice38BELTEAM TRAIL SALO2:24:262:24:554:50 12.422homCOUILLET
3.644GROFFIER JérômeBEL2:24:562:25:274:51 12.383hom
4.604SAGGIORATO Samuel37BELMP STUDIO FITNE2:33:042:33:365:08 11.724homAYE
5.504BAUDOIN Philippe44BELARCH2:37:522:38:245:17 11.365homMIÉCRET
6.529DATTOLI Matteo55ITA2:37:512:38:255:17 11.366homHUY
7.534DELCHAMBRE Frédéric41BELLES FOULÉES DU 2:38:542:39:265:19 11.297homWANZE
8.554GROSDENT Jonathan33BELTEAM 332:40:002:41:065:23 11.178homWELKENRAEDT
9.661DERAVET BernardBEL2:41:512:42:355:26 11.079hom
10.501ALBERT Mika29BELTRAKKS2:48:412:49:425:40 10.6110homLASNE
11.513BOURGUIGNON Laurent43BELBATIFER TRIATHL2:50:512:51:225:43 10.5011homFREUX
12.646MOTCH RaphaelBEL2:51:012:51:305:43 10.5012hom
13.581DE DECKER Christophe41BELCJHSH2:50:222:51:345:44 10.4913hom
14.583MAGINELLE Stef41BEL2:51:132:52:265:45 10.4414homKAMPENHOUT
15.511BODEUX Jean-Luc38BEL2:52:072:52:395:46 10.4315homTINTIGNY
16.628ZANIER Laurent39BELTEAM MADRES2:54:282:55:075:51 10.2816homMAURAGE
17.556HANCE Thibaut31BEL2:55:162:55:545:52 10.2317homBELGRADE
18.579LHERMITTE Igor33BEL2:55:122:56:435:54 10.1918homBAILLONVILLE
19.625WIART Yves47BEL2:56:192:56:565:54 10.1719homDURNAL
20.552GRIMARD Bruno25BEL2:58:122:59:065:59 10.0520homAISEAU
21.668VAN DEN BROECK Tim31BEL2:59:162:59:496:00 10.0121hom
22.639DEPAYE NicolasBEL2:59:493:00:356:02 9.9722hom
23.533DELAIT Olivier47BEL3:00:223:00:576:02 9.9523homBRAS-HAUT
24.589MIKÓCZI Géza36HUNVKE-NELSON3:00:453:01:336:04 9.9224homBRUXELLES
25.580LICHTHERTE Eric40BEL3:01:023:01:376:04 9.9125homHULSONNIAUX
26.576LEFEBVRE Thibault26BEL3:01:503:02:456:06 9.8526homSTAVE
27.551GRÉGOIRE Vincent40BEL3:02:323:03:066:07 9.8327homON
28.558HEYNS Christophe41BELPAXX CYCLING/SC3:04:563:05:506:12 9.6928homHEERS
29.531DECOUVREUR Bernard41BELTCW3:05:143:06:046:13 9.6729homBLANMONT
30.524COSSEE Emmanuel40BEL3:05:123:06:046:13 9.6730homTERVUREN
31.557HARDY Eric52BEL3:05:273:06:456:14 9.6431homSALLES
32.520CLAESSENS Olivier39BEL3:06:193:07:216:15 9.6132homBIEZ
33.573LECOMTE Lionel46BELUN ORVAL DE RET3:07:443:08:166:17 9.5633homTINTIGNY
34.560ISTACE Vincent41BELARCH3:08:123:09:436:20 9.4934homACHET
35.615VAN DER LINDEN Paul65BELRC NAMUR3:09:103:09:436:20 9.4935homMALONNE
36.549GRANVILLE Dimitri41BEL-3:10:223:11:096:23 9.4236homHEPPIGNIES
37.611VANDAMME Dieter33BELDAPALO3:11:323:13:076:27 9.3237homGELUWE
38.590MOINIÉ Gil29BELDECATHLON3:12:473:13:596:28 9.2838homLOBBES
39.647MUNAUT JeremyBEL3:15:243:17:006:34 9.1439hom
40.539DEVEZEAUX DE LAVERGN Jean-Marie27BELBTC3:16:463:17:366:36 9.1140homETTERBEEK
41.568FLAMBERT Anne-Sophie26BELBTC3:16:473:17:376:36 9.111damETTERBEEK
42.617VANESSE Christophe32BELBIKERS FOR LIFE3:19:073:20:186:41 8.9941homVEDRIN
43.616VAN DE VEN Bart33BEL3:19:483:20:516:42 8.9642homNIVELLES
44.621VERHEYEN Cedric36BELTRAKKS3:20:383:21:236:43 8.9443homBEERSEL
45.598PHILIPPART Eric49BEL3:19:543:21:276:43 8.9444homCÉROUX-MOUSTY
46.597PETITPAS Christophe42FRAK-RAID ARDENNES3:19:543:21:296:43 8.9345homBOGNY SUR MEUSE
47.526CULOT Jean-Marc50BELJC.ESTINNES3:20:293:21:346:44 8.9346homLA HESTRE
48.630BERTHET AlainBEL3:20:483:21:506:44 8.9247hom
49.634CHAUSSIER GregoryBEL3:21:203:22:026:45 8.9148hom
50.631BONTEMPS LucBEL3:20:333:22:196:45 8.9049hom
51.544FERRIERE Benoit52BELJE TRAIL À WAN3:21:263:22:236:45 8.8950homWANZE
52.641FOULON BastienBEL3:22:443:23:406:48 8.8451hom
53.613VANDEPOELE Damien50BELGAG GEMBLOUX3:22:233:23:456:48 8.8352homSPY
54.563JOBE Bernard40BELMDS2015.BE3:22:313:23:486:48 8.8353homLIEGE
55.657TIMMERMANS GaetanBEL3:23:103:24:216:49 8.8154hom
56.658TOUSSAINT MaximeBEL3:24:433:25:546:52 8.7455hom
57.518CHEVALIER Fabian32BELLES MOTIVÉS3:25:303:26:146:53 8.7356homBIOUL
58.667FROBERTI Daphné Marie38BELRC NAMUR3:25:303:26:166:53 8.732damSAINT-GILLES
59.603SAELMACKERS Michel57BELLES MOTIVÉS DE 3:25:333:26:166:53 8.7357homBIESME
60.525CRETELEINE Roland53BELLES MOTIVES DE 3:25:323:26:166:53 8.7358homFLORENNES
61.555GRUMERMER Christian37FRA3:25:113:26:176:53 8.7359homHASNON
62.599PILATE Yannik35BEL3:26:123:27:086:55 8.6960homFRANIÈRE
63.546GILLANT Michel54BELSANS3:26:033:27:156:55 8.6961homMONS
64.648PAJO BenjaminBEL3:26:043:27:156:55 8.6962hom
65.528DASY Jean-Francois35BEL3:27:433:29:176:59 8.6063homON
66.622VERSTRAETE Eric36NLD3:29:173:30:237:01 8.5664homHEEL
67.609TRULLEMANS Jean-Luc41BELNSTT3:32:253:34:097:09 8.4165homLIMAL
68.562JENARD Greg31BELMADRES3:32:423:34:227:09 8.4066homDOUR
69.575LEDOUX Thierry45BELARCH CINEY3:33:493:35:357:12 8.3567homHAVELANGE
70.553GROLLINGER Thierry49BELARCH3:33:493:35:357:12 8.3568homBONSIN
71.538DEMEUR Laurent35BELCABW3:34:443:35:487:12 8.3469homBAULERS
72.624WATTIAUX Coli33BELCABW TRAIL3:34:453:35:497:12 8.3470homBAULERS
73.610VALENTE Bruno42FRAK-RAID ARDENNES3:34:413:36:167:13 8.3271homBOGNY SUR MEUSE
74.537DELPEUT Philippe42FRAK-RAID ARDENNES3:34:433:36:187:13 8.3272homBOGNY SUR MEUSE
75.586MARÉCHAL Philippe40BELJOGGING ET NATU3:34:423:36:337:14 8.3173homLE ROUX
76.664LINDEKENS Bertrand48BEL3:37:173:38:387:18 8.2374homMAISON SAINT-GERARD
77.522FCORNET Anne48BELFLEURUS ATHLÉTI3:38:023:39:327:20 8.203damJEMEPPE SUR SAMBRE
78.627ZUYDERHOFF Pierre29BEL3:41:213:42:227:25 8.0975homFAULX LES TOMBES
79.567LAEREMANS Frank48BEL3:42:263:43:107:27 8.0776homDURNAL
80.593OLIVIER Gérald35BEL3:42:093:43:127:27 8.0677homNIVELLES
81.516CALLEEUW Stéphane48BEL3:43:263:44:467:30 8.0178homBAULET
82.507BEELEN Daniel48BEL3:43:263:44:467:30 8.0179homROLOUX
83.536DELMOTTE Jean-Yves50BEL3:43:263:44:467:30 8.0180homROUX
84.638DEMOITIE ThibautBEL3:45:293:46:407:34 7.9481hom
85.623VERSTRAETE Peter45NLD3:47:033:47:507:36 7.9082homHEEL
86.620VAN NUFFELEN Geoffrey42BEL3:47:293:48:487:38 7.8783homDAUSSOIS
87.572LECHIEN Xavier46BEL3:48:123:49:437:40 7.8484homIZIER
88.591NEMANN Bruno32BELRCNAMUR3:49:453:51:207:43 7.7885homWARTET
89.635CHRISTOPHE CedricBEL3:57:283:58:397:58 7.5486hom
90.656THYS FredericBEL3:57:293:58:417:58 7.5487hom
91.506BEDORET Geoffrey25BELCLERMONTOISE4:02:104:03:278:07 7.3988homCLERMONT
92.605SOREL Renaud30BEL4:02:144:03:298:07 7.3989homNIVELLES
93.606STUBENER Marc44BEL4:04:134:06:208:13 7.3190homBIESME
94.601ROMAIN Rudi47BEL4:04:144:06:218:13 7.3191homWARNANT
95.547GILLARD Laurent47BEL4:05:434:07:098:15 7.2892homANHÉE
96.559HOSSELET Jean-Yves44BEL4:05:434:07:098:15 7.2893homANHÉE
97.523CORNET Pascal42BELSLOW & GLORIUS4:07:064:08:548:18 7.2394homTHOREMBAIS-SAINT-TROND
98.614VANDEPUTTE Geoffroy45BEL4:11:204:12:168:25 7.1495homBONHEIDEN
99.540DEWEZ Bertrand31BEL4:11:204:12:178:25 7.1496homBRUXELLES
100.541DEWEZ Geoffroy35BEL4:11:204:12:178:25 7.1497homBRUXELLES
101.602ROSILLON Dominique57BELARCH4:11:144:13:008:26 7.1198homSOREE
102.651RODIA Frederic41BELPOINTS DE GRAIN4:12:224:13:068:27 7.1199homFRAMERIES
103.640FLAMME XavierBEL4:15:144:16:488:34 7.01100hom
104.12BAIJOT Eric48BELARCH4:16:574:18:448:38 6.96101homDINANT
105.592NONET Ludwig42BEL4:18:544:19:438:40 6.93102homBOIS DE VILLERS
106.612VANDENWEGHE Juan35BELDAPALO4:21:174:22:528:46 6.85103homMENEN
107.532DEGRAEVE Kenny29BELDAPALO4:21:194:22:528:46 6.85104homDADIZELE
108.566LACAILLE Guy62BELBTC4:26:334:27:358:56 6.73105homNIVELLES
109.561JANDRAIN Sébastien35BEL4:26:394:27:358:56 6.73106hom5080
110.545GASTRIN Jeannot55FRA4:51:594:53:369:48 6.13107homANNOEULLIN
DSQ521COOREVITS Pieter32BELCOOREVITA2:08:272:09:16homGENTBRUGGE
DNF515BROUILLARD François40BELMADREShomFRAMERIES
DNF665FLECLERC SandrineBELdam
DNF577FLENAERTS Sofie39BELdamAPPELTERRE-EICHEM
DNF: did not finish; DSQ: disqualified; Speed in km/h
Page: [1]